This demonstration page uses our WeatherBlox Daily Observations layout. Learn more.

Left ArrowRight Arrow

Hourly Observations for September 28, 2022

Temp ( °F °C ) Dew Point ( °F °C ) Humidity (%) Winds ( mph kmh ) Pressure ( in mb ) Visibility ( mi km ) Precip ( " mm )
12:55 am 00:55 Clear 55 12.8 31 -0.5 40 40 ENE 7 11 30.38 1029 10 16 0.00 0.00
1:55 am 01:55 undefined 54 12.4 29 -1.5 38 38 E 5 7 30.39 1029 10 16 0.00 0.00
2:55 am 02:55 Clear 51 10.6 30 -1.2 44 44 E 3 6 30.41 1030 10 16 0.00 0.00
3:55 am 03:55 Clear 51 10.4 30 -1.3 44 44 E 5 7 30.42 1030 10 16 0.00 0.00
4:55 am 04:55 Clear 49 9.4 30 -1.3 47 47 E 5 7 30.44 1031 10 16 0.00 0.00
5:55 am 05:55 Clear 46 8 31 -0.7 54 54 ENE 7 11 30.45 1031 10 16 0.00 0.00
6:55 am 06:55 Clear 46 7.7 30 -1.3 53 53 E 5 7 30.46 1032 10 16 0.00 0.00
7:55 am 07:55 Sunny 46 7.8 31 -0.7 55 55 ENE 5 7 30.48 1032 10 16 0.00 0.00
8:55 am 08:55 Sunny 49 9.5 32 0.1 52 52 E 6 9 30.50 1033 10 16 0.00 0.00
9:55 am 09:55 Sunny 54 12.1 32 0.2 44 44 SE 6 9 30.50 1033 10 16 0.00 0.00
10:55 am 10:55 Sunny 58 14.7 31 -0.6 35 35 ESE 6 9 30.51 1033 10 16 0.00 0.00
11:55 am 11:55 Sunny 62 16.8 29 -1.8 28 28 ESE 8 13 30.50 1033 10 16 0.00 0.00
12:55 pm 12:55 Sunny 65 18.5 29 -1.9 25 25 SE 5 7 30.49 1033 10 16 0.00 0.00
1:55 pm 13:55 Sunny 67 19.5 25 -4.1 20 20 E 5 7 30.46 1032 10 16 0.00 0.00
2:55 pm 14:55 Sunny 69 20.4 25 -4 19 19 SE 6 9 30.44 1031 10 16 0.00 0.00
3:55 pm 15:55 Sunny 70 20.9 26 -3.6 19 19 ESE 8 13 30.41 1030 10 16 0.00 0.00
4:55 pm 16:55 Sunny 70 21 26 -3.5 19 19 ESE 7 11 30.40 1030 10 16 0.00 0.00
5:55 pm 17:55 Sunny 68 20.1 28 -2.3 22 22 ESE 9 15 30.40 1029 10 16 0.00 0.00
6:55 pm 18:55 Sunny 65 18.1 29 -1.7 26 26 ESE 5 7 30.40 1029 10 16 0.00 0.00
7:55 pm 19:55 Clear 59 15.2 29 -1.4 32 32 E 5 7 30.41 1030 10 16 0.00 0.00
8:55 pm 20:55 Clear 56 13.6 33 0.6 41 41 E 5 7 30.42 1030 10 16 0.00 0.00
9:55 pm 21:55 Clear 55 12.5 34 0.9 45 45 E 3 6 30.44 1031 10 16 0.00 0.00
10:55 pm 22:55 Clear 52 10.9 35 1.4 52 52 SE 7 11 30.43 1030 10 16 0.00 0.00
11:55 pm 23:55 Clear 49 9.7 34 1.3 56 56 SSE 5 7 30.43 1030 10 16 0.00 0.00

Powered by AerisWeather